Flag for U.S.A. Weather past 2 weeks in Olympia, Washington, U.S.A.

Now
52 °F

Light rain. Broken clouds.


Feels Like: 47 °F
Forecast: 44 / 55 °F
Wind: 14 mph from West

Location: Olympia Airport


UV Index: 0 (Low)

Visibility: 9 mi


Pressure: 29.84 "Hg

Humidity: 77%

Dew point: 45 °F

Location of OlympiaLocation

Historic Weather in Olympia

°F

Olympia temperature yesterday

Maximum temperature yesterday: 51 °F (at 11:54 PM)
Minimum temperature yesterday: 42 °F (at 5:54 AM)
Average temperature yesterday: 47 °F

Past Weeks' High & Low Weather Summary

 TemperatureHumidityPressure
High69 °F (Apr 13, 4:54 PM)100% (Apr 10, 4:54 AM)30.31 "Hg (Apr 10, 4:54 AM)
Low31 °F (Apr 10, 6:01 AM)23% (Apr 13, 3:54 PM)29.60 "Hg (Apr 24, 4:03 AM)
Average49 °F76%30.05 "Hg
* Reported Apr 9 11:54 AM — Apr 24 11:54 AM, Olympia, Weather by CustomWeather, © 2014

Note: Actual official high and low records may vary slightly from our data, if they occured in-between our weather recording intervals... More about our weather records

Advertising

Historic Weather Conditions — Data for Previous 24 hours

 ConditionsComfort  
Time TempWeatherWind HumidityBarometerVisibility
11:54 AM
Apr 24
50 °FLight rain. Cloudy.13 mph83%29.83 "Hg9 mi
10:54 AM52 °FLight rain. Mostly cloudy.21 mph75%29.78 "Hg10 mi
9:54 AM53 °FBroken clouds.9 mph74%29.76 "Hg10 mi
8:54 AM52 °FScattered clouds.8 mph77%29.74 "Hg10 mi
7:54 AM49 °FScattered clouds.7 mph86%29.72 "Hg10 mi
6:54 AM49 °FPassing clouds.7 mph86%29.70 "Hg10 mi
5:54 AM51 °FOvercast.13 mph89%29.65 "Hg9 mi
4:54 AM52 °FLight rain. Fog.14 mph89%29.61 "Hg6 mi
4:03 AM52 °FLight rain. Fog.17 mph89%29.60 "Hg4 mi
3:57 AM52 °FRain. Fog.15 mph89%29.61 "Hg2 mi
2:54 AM52 °FLight rain. Fog.14 mph89%29.61 "Hg5 mi
2:04 AM52 °FLight rain. Fog.15 mph93%29.61 "Hg3 mi
1:54 AM52 °FLight rain. Fog.21 mph89%29.61 "Hg2 mi
12:54 AM51 °FLight rain. Fog.15 mph92%29.62 "Hg4 mi
11:54 PM
Apr 23
51 °FLight rain. Mostly cloudy.14 mph92%29.62 "Hg9 mi
10:54 PM50 °FLight rain. Fog.13 mph93%29.65 "Hg4 mi
9:54 PM50 °FLight rain. Fog.10 mph89%29.67 "Hg4 mi
8:54 PM50 °FLight rain. Fog.3 mph93%29.70 "Hg3 mi
7:54 PM50 °FLight rain. Fog.5 mph93%29.71 "Hg3 mi
6:56 PM50 °FLight rain. Fog.No wind96%29.75 "Hg2 mi
5:57 PM50 °FLight rain. Fog.5 mph93%29.77 "Hg2 mi
4:54 PM50 °FLight rain. Fog.5 mph89%29.81 "Hg3 mi
3:54 PM50 °FLight rain. Fog.5 mph86%29.84 "Hg6 mi
2:54 PM50 °FOvercast.6 mph83%29.86 "Hg10 mi
1:54 PM50 °FMostly cloudy.13 mph80%29.88 "Hg10 mi
Weather by CustomWeather, © 2014

See weather overview